timestamp,wind_dir_avg,wind_spd_avg,wind_spd_max_dir,wind_spd_gust,battery_voltage,lat,long
2020-12-13 00:04:01+00:00,275.0,5.9,273.0,6.35,12.57,47.59359,-54.27349
2020-12-13 00:14:01+00:00,275.0,5.62,271.0,6.34,12.57,47.59359,-54.27349
2020-12-13 00:24:01+00:00,277.0,5.83,278.0,6.28,12.57,47.59359,-54.27349
2020-12-13 00:34:01+00:00,286.0,5.55,291.0,6.28,12.57,47.59359,-54.27349
2020-12-13 00:44:01+00:00,284.0,5.45,289.0,6.12,12.57,47.59359,-54.27349
2020-12-13 00:54:01+00:00,286.0,5.22,281.0,6.24,12.57,47.59359,-54.27349
2020-12-13 01:04:01+00:00,294.0,5.1,300.0,6.04,12.57,47.59359,-54.27349
2020-12-13 01:14:01+00:00,296.0,4.65,302.0,5.67,12.49,47.59359,-54.27349
2020-12-13 01:24:01+00:00,293.0,5.27,295.0,6.18,12.49,47.59359,-54.27349
2020-12-13 01:34:01+00:00,295.0,4.18,291.0,5.04,12.49,47.59359,-54.27349
2020-12-13 01:44:01+00:00,300.0,5.04,303.0,6.09,12.49,47.59359,-54.27349
2020-12-13 01:54:01+00:00,305.0,7.03,315.0,8.03,12.49,47.59359,-54.27349
2020-12-13 02:04:01+00:00,314.0,7.2,320.0,8.25,12.49,47.59359,-54.27349
2020-12-13 02:14:01+00:00,311.0,7.01,306.0,8.24,12.49,47.59359,-54.27349
2020-12-13 02:24:01+00:00,315.0,6.42,308.0,8.15,12.49,47.59359,-54.27349
2020-12-13 02:34:01+00:00,326.0,5.74,326.0,6.39,12.49,47.59359,-54.27349
2020-12-13 02:44:01+00:00,323.0,6.48,317.0,8.06,12.49,47.59359,-54.27349
2020-12-13 02:54:01+00:00,323.0,6.81,326.0,7.79,12.49,47.59359,-54.27349
2020-12-13 03:04:01+00:00,329.0,6.94,324.0,8.07,12.49,47.59359,-54.27349
2020-12-13 03:14:01+00:00,334.0,6.95,335.0,7.99,12.49,47.59359,-54.27349
2020-12-13 03:24:01+00:00,342.0,7.59,355.0,8.48,12.49,47.59359,-54.27349
2020-12-13 03:34:01+00:00,343.0,6.86,346.0,7.57,12.49,47.59359,-54.27349
2020-12-13 03:44:01+00:00,350.0,7.34,339.0,8.3,12.49,47.59359,-54.27349
2020-12-13 03:54:01+00:00,346.0,7.2,349.0,8.46,12.49,47.59359,-54.27349
2020-12-13 04:04:01+00:00,351.0,6.59,348.0,7.58,12.49,47.59359,-54.27349
2020-12-13 04:14:01+00:00,348.0,6.33,349.0,7.05,12.41,47.59359,-54.27349
2020-12-13 04:24:01+00:00,351.0,6.34,351.0,7.32,12.41,47.59359,-54.27349
2020-12-13 04:34:01+00:00,355.0,6.44,351.0,7.47,12.41,47.59359,-54.27349
2020-12-13 04:44:01+00:00,350.0,4.78,346.0,5.41,12.41,47.59359,-54.27349
2020-12-13 04:54:01+00:00,349.0,5.22,343.0,6.4,12.41,47.59359,-54.27349
2020-12-13 05:04:01+00:00,346.0,4.87,347.0,5.65,12.41,47.59359,-54.27349
2020-12-13 05:14:01+00:00,355.0,5.52,348.0,6.75,12.41,47.59359,-54.27349
2020-12-13 05:24:01+00:00,353.0,5.61,354.0,6.31,12.41,47.59359,-54.27349
2020-12-13 05:34:01+00:00,2.0,3.84,0.0,4.75,12.41,47.59359,-54.27349
2020-12-13 05:44:01+00:00,352.0,3.3,353.0,4.22,12.41,47.59359,-54.27349
2020-12-13 05:54:01+00:00,339.0,3.88,338.0,4.42,12.41,47.59359,-54.27349
2020-12-13 06:04:01+00:00,7.0,3.6,7.0,4.49,12.41,47.59359,-54.27349
2020-12-13 06:14:01+00:00,3.0,4.99,10.0,5.6,12.41,47.59359,-54.27349
2020-12-13 06:24:01+00:00,3.0,6.63,4.0,7.93,12.41,47.59359,-54.27349
2020-12-13 06:34:01+00:00,0.0,6.21,356.0,6.86,12.41,47.59359,-54.27349
2020-12-13 06:44:01+00:00,354.0,5.22,356.0,5.93,12.41,47.59359,-54.27349
2020-12-13 06:54:01+00:00,351.0,5.79,3.0,6.58,12.41,47.59359,-54.27349
2020-12-13 07:04:01+00:00,349.0,6.45,350.0,7.56,12.41,47.59359,-54.27349
2020-12-13 07:14:01+00:00,357.0,6.34,1.0,7.04,12.33,47.59359,-54.27349
2020-12-13 07:24:01+00:00,9.0,5.25,8.0,6.13,12.33,47.59359,-54.27349
2020-12-13 07:34:01+00:00,0.0,5.07,1.0,5.95,12.33,47.59359,-54.27349
2020-12-13 07:44:01+00:00,14.0,5.99,11.0,7.16,12.33,47.59359,-54.27349
2020-12-13 07:54:01+00:00,13.0,4.84,17.0,5.84,12.33,47.59359,-54.27349
2020-12-13 08:04:01+00:00,2.0,4.67,356.0,5.55,12.33,47.59359,-54.27349
2020-12-13 08:14:01+00:00,9.0,4.24,17.0,5.39,12.33,47.59359,-54.27349
2020-12-13 08:24:01+00:00,6.0,4.06,3.0,4.66,12.33,47.59359,-54.27349
2020-12-13 08:34:01+00:00,359.0,4.1,3.0,4.81,12.33,47.59359,-54.27349
2020-12-13 08:44:01+00:00,2.0,4.2,3.0,5.44,12.33,47.59359,-54.27349
2020-12-13 08:54:01+00:00,350.0,4.76,347.0,5.38,12.33,47.59359,-54.27349
2020-12-13 09:04:01+00:00,350.0,4.09,351.0,5.11,12.33,47.59359,-54.27349
2020-12-13 09:14:01+00:00,355.0,4.07,12.0,5.07,12.33,47.59359,-54.27349
2020-12-13 09:24:01+00:00,23.0,4.09,24.0,4.92,12.33,47.59359,-54.27349
2020-12-13 09:34:01+00:00,8.0,4.32,5.0,4.84,12.33,47.59359,-54.27349
2020-12-13 09:44:01+00:00,9.0,3.79,6.0,4.44,12.33,47.59359,-54.27349
2020-12-13 09:54:01+00:00,5.0,3.61,5.0,4.96,12.33,47.59359,-54.27349
2020-12-13 10:04:01+00:00,338.0,4.01,341.0,4.88,12.33,47.59359,-54.27349
2020-12-13 10:14:01+00:00,14.0,3.96,14.0,4.92,12.33,47.59359,-54.27349
2020-12-13 10:24:01+00:00,359.0,3.57,339.0,4.31,12.33,47.59359,-54.27349
2020-12-13 10:34:01+00:00,354.0,3.89,1.0,4.52,12.33,47.59359,-54.27349
2020-12-13 10:44:01+00:00,60.0,4.01,60.0,6.92,12.33,47.59359,-54.27349
2020-12-13 10:54:01+00:00,87.0,1.82,120.0,2.73,12.33,47.59359,-54.27349
2020-12-13 11:04:01+00:00,96.0,2.18,108.0,3.34,12.33,47.59359,-54.27349
2020-12-13 11:14:01+00:00,90.0,3.38,102.0,4.35,12.33,47.59359,-54.27349
2020-12-13 11:24:01+00:00,102.0,3.46,118.0,5.13,12.33,47.59359,-54.27349
2020-12-13 11:34:01+00:00,90.0,3.15,112.0,4.85,12.33,47.59359,-54.27349
2020-12-13 11:44:01+00:00,106.0,2.94,120.0,4.53,12.33,47.59359,-54.27349
2020-12-13 11:54:01+00:00,95.0,3.31,97.0,4.55,12.33,47.59359,-54.27349
2020-12-13 12:04:01+00:00,75.0,3.4,68.0,4.72,12.33,47.59359,-54.27349
2020-12-13 14:14:01+00:00,110.0,2.91,119.0,4.46,12.73,47.59359,-54.27349
2020-12-13 14:24:01+00:00,118.0,4.68,119.0,5.58,12.73,47.59359,-54.27349
2020-12-13 14:34:01+00:00,127.0,4.79,129.0,5.71,12.73,47.59359,-54.27349
2020-12-13 14:44:01+00:00,133.0,5.51,139.0,6.99,12.73,47.59359,-54.27349
2020-12-13 14:54:01+00:00,117.0,4.98,88.0,7.35,12.73,47.59359,-54.27349
2020-12-13 15:04:01+00:00,128.0,5.55,125.0,6.57,12.73,47.59359,-54.27349
2020-12-13 15:14:01+00:00,97.0,3.87,111.0,5.75,12.73,47.59359,-54.27349
2020-12-13 15:24:01+00:00,98.0,3.77,123.0,5.11,12.73,47.59359,-54.27349
2020-12-13 15:34:01+00:00,123.0,5.46,131.0,7.03,12.73,47.59359,-54.27349
2020-12-13 15:44:01+00:00,121.0,4.92,95.0,5.99,12.73,47.59359,-54.27349
2020-12-13 15:54:01+00:00,94.0,4.35,66.0,6.05,12.73,47.59359,-54.27349
2020-12-13 16:04:01+00:00,94.0,4.08,114.0,5.57,12.73,47.59359,-54.27349
2020-12-13 16:14:01+00:00,97.0,2.89,98.0,4.87,12.57,47.59359,-54.27349
2020-12-13 16:24:01+00:00,94.0,4.16,87.0,6.45,12.57,47.59359,-54.27349
2020-12-13 16:34:01+00:00,91.0,3.36,87.0,6.26,12.57,47.59359,-54.27349
2020-12-13 16:44:01+00:00,102.0,3.93,100.0,5.58,12.57,47.59359,-54.27349
2020-12-13 16:54:01+00:00,93.0,4.42,96.0,8.82,12.57,47.59359,-54.27349
2020-12-13 17:04:01+00:00,88.0,3.11,113.0,4.23,12.57,47.59359,-54.27349
2020-12-13 17:14:01+00:00,74.0,3.13,81.0,7.24,12.41,47.59359,-54.27349
2020-12-13 17:24:01+00:00,315.0,0.01,0.0,0.0,12.41,47.59359,-54.27349
2020-12-13 17:34:01+00:00,315.0,0.01,0.0,0.0,12.41,47.59359,-54.27349
2020-12-13 17:44:01+00:00,315.0,0.01,0.0,0.0,12.41,47.59359,-54.27349
2020-12-13 17:54:01+00:00,315.0,0.01,0.0,0.0,12.41,47.59359,-54.27349
2020-12-13 18:04:01+00:00,76.0,4.13,52.0,5.26,12.41,47.59359,-54.27349
2020-12-13 18:14:01+00:00,82.0,4.94,77.0,10.91,12.33,47.59359,-54.27349
2020-12-13 18:24:01+00:00,51.0,1.08,100.0,7.82,12.33,47.59359,-54.27349
2020-12-13 18:34:01+00:00,83.0,4.09,93.0,8.98,12.33,47.59359,-54.27349
2020-12-13 18:44:01+00:00,71.0,7.72,78.0,10.27,12.33,47.59359,-54.27349
2020-12-13 18:54:01+00:00,87.0,4.6,79.0,6.45,12.33,47.59359,-54.27349
2020-12-13 19:04:01+00:00,315.0,0.01,0.0,0.0,12.33,47.59359,-54.27349
2020-12-13 19:14:01+00:00,315.0,0.01,0.0,0.0,12.33,47.59359,-54.27349
2020-12-13 19:24:01+00:00,315.0,0.01,0.0,0.0,12.33,47.59359,-54.27349
2020-12-13 19:34:01+00:00,315.0,0.01,0.0,0.0,12.33,47.59359,-54.27349
2020-12-13 19:44:01+00:00,315.0,0.01,0.0,0.0,12.33,47.59359,-54.27349
2020-12-13 19:54:01+00:00,315.0,0.01,0.0,0.0,12.33,47.59359,-54.27349
2020-12-13 20:04:01+00:00,71.0,7.56,94.0,11.26,12.33,47.59359,-54.27349
2020-12-13 20:14:01+00:00,65.0,7.89,84.0,12.85,12.33,47.59359,-54.27349
2020-12-13 20:24:01+00:00,63.0,7.9,73.0,11.3,12.33,47.59359,-54.27349
2020-12-13 20:34:01+00:00,71.0,8.33,71.0,10.86,12.33,47.59359,-54.27349
2020-12-13 20:44:01+00:00,75.0,9.5,72.0,12.33,12.33,47.59359,-54.27349
2020-12-13 20:54:01+00:00,74.0,11.01,72.0,12.53,12.33,47.59359,-54.27349
2020-12-13 21:04:01+00:00,75.0,10.19,74.0,11.73,12.33,47.59359,-54.27349
2020-12-13 21:14:01+00:00,76.0,8.16,70.0,11.04,12.33,47.59359,-54.27349
2020-12-13 21:24:01+00:00,76.0,8.7,82.0,11.13,12.33,47.59359,-54.27349
2020-12-13 21:34:01+00:00,72.0,10.51,72.0,12.95,12.33,47.59359,-54.27349
2020-12-13 21:44:01+00:00,77.0,8.64,79.0,10.13,12.33,47.59359,-54.27349
2020-12-13 21:54:01+00:00,75.0,8.4,84.0,11.39,12.33,47.59359,-54.27349
2020-12-13 22:04:01+00:00,75.0,9.28,75.0,13.82,12.33,47.59359,-54.27349
2020-12-13 22:14:01+00:00,74.0,8.11,57.0,9.76,12.33,47.59359,-54.27349
2020-12-13 22:24:01+00:00,75.0,9.02,80.0,11.41,12.33,47.59359,-54.27349
2020-12-13 22:34:01+00:00,74.0,9.66,75.0,12.51,12.33,47.59359,-54.27349
2020-12-13 22:44:01+00:00,78.0,9.1,72.0,11.84,12.33,47.59359,-54.27349
2020-12-13 22:54:01+00:00,81.0,9.09,77.0,12.48,12.33,47.59359,-54.27349
2020-12-13 23:04:01+00:00,77.0,8.84,66.0,11.39,12.33,47.59359,-54.27349
2020-12-13 23:14:01+00:00,80.0,8.69,99.0,10.54,12.33,47.59359,-54.27349
2020-12-13 23:24:01+00:00,79.0,8.86,90.0,12.49,12.33,47.59359,-54.27349
2020-12-13 23:34:01+00:00,70.0,9.75,74.0,12.79,12.33,47.59359,-54.27349
2020-12-13 23:44:01+00:00,75.0,9.59,78.0,12.86,12.33,47.59359,-54.27349
2020-12-13 23:54:01+00:00,73.0,10.13,72.0,13.26,12.33,47.59359,-54.27349
